DLH220 ELLX-EDDM

Flight info

Callsign DLH220
Flight time N/A
Altitude 35000
Route ASMOX Y891 ROPUV L607 UBIDU L984 RUDUS DCT CINDY/N0427F230 Z74 HAREM T104 ROKIL ROKIL1A
Aircraft A320/M-SDE3FGHIRWY/LB1

Departure

Time 2026-05-04 14:11
Airport Luxembourg-Findel International Airport (ELLX)

Arrival

Time N/A
Airport Munich Airport (EDDM)
Time Latitude Longitude Altitude Speed Heading
2026-05-04 13:45 49.63343 6.21694 1195 ft 0 kts 328°
2026-05-04 14:00 49.63342 6.21677 1195 ft 4 kts 277°
2026-05-04 14:01 49.63334 6.21697 1195 ft 2 kts 345°
2026-05-04 14:01 49.63312 6.21710 1196 ft 4 kts 313°
2026-05-04 14:01 49.63312 6.21770 1185 ft 2 kts 241°
2026-05-04 14:04 49.63279 6.21676 1184 ft 0 kts 246°
2026-05-04 14:04 49.63279 6.21648 1192 ft 9 kts 275°
2026-05-04 14:05 49.63220 6.21537 1196 ft 8 kts 152°
2026-05-04 14:05 49.63170 6.21580 1196 ft 11 kts 150°
2026-05-04 14:05 49.63091 6.21630 1197 ft 13 kts 189°
2026-05-04 14:06 49.63040 6.21532 1197 ft 12 kts 242°
2026-05-04 14:06 49.63006 6.21427 1197 ft 10 kts 244°
2026-05-04 14:06 49.62956 6.21257 1197 ft 32 kts 245°
2026-05-04 14:06 49.62852 6.20920 1196 ft 36 kts 243°
2026-05-04 14:07 49.62721 6.20648 1197 ft 26 kts 216°
2026-05-04 14:07 49.62586 6.20450 1198 ft 28 kts 229°
2026-05-04 14:07 49.62470 6.20204 1198 ft 29 kts 238°
2026-05-04 14:07 49.62367 6.19931 1198 ft 30 kts 240°
2026-05-04 14:08 49.62259 6.19642 1198 ft 32 kts 239°
2026-05-04 14:08 49.62145 6.19340 1197 ft 33 kts 240°
2026-05-04 14:08 49.62028 6.19024 1196 ft 34 kts 240°
2026-05-04 14:08 49.61885 6.18739 1197 ft 29 kts 215°
2026-05-04 14:09 49.61803 6.18893 1203 ft 0 kts 60°
2026-05-04 14:10 49.61840 6.18991 1203 ft 43 kts 60°
2026-05-04 14:11 49.62154 6.19840 1210 ft 135 kts 60°
2026-05-04 14:11 49.63327 6.23078 2441 ft 197 kts 64°
2026-05-04 14:11 49.64043 6.25005 3047 ft 219 kts 63°
2026-05-04 14:12 49.64844 6.27155 3514 ft 243 kts 63°
2026-05-04 14:12 49.65728 6.29526 4055 ft 266 kts 63°
2026-05-04 14:12 49.67658 6.34689 5751 ft 286 kts 64°
2026-05-04 14:13 49.68781 6.37270 6707 ft 297 kts 48°
2026-05-04 14:13 49.70586 6.38882 7715 ft 308 kts 13°
2026-05-04 14:13 49.72710 6.38895 8755 ft 308 kts 343°
2026-05-04 14:13 49.74704 6.37729 9838 ft 305 kts 329°
2026-05-04 14:14 49.76611 6.36166 10472 ft 321 kts 327°
2026-05-04 14:14 49.80901 6.32769 11048 ft 371 kts 334°
2026-05-04 14:14 49.83354 6.31168 11258 ft 394 kts 337°
2026-05-04 14:15 49.88842 6.29508 12465 ft 412 kts 359°
2026-05-04 14:15 49.94567 6.30908 13819 ft 423 kts 18°
2026-05-04 14:16 49.99642 6.35473 14952 ft 429 kts 46°
2026-05-04 14:16 50.01405 6.39128 15470 ft 429 kts 64°
2026-05-04 14:17 50.02667 6.48070 16655 ft 428 kts 91°
2026-05-04 14:17 50.02753 6.52718 17242 ft 432 kts 91°
2026-05-04 14:17 50.02915 6.62138 18376 ft 439 kts 91°
2026-05-04 14:18 50.03002 6.66907 18839 ft 443 kts 91°
2026-05-04 14:18 50.03178 6.76554 19770 ft 450 kts 91°
2026-05-04 14:19 50.03321 6.84689 20492 ft 455 kts 91°
2026-05-04 14:19 50.03406 6.89623 20893 ft 458 kts 91°
2026-05-04 14:19 50.03489 6.94667 21323 ft 462 kts 91°
2026-05-04 14:19 50.03564 6.99607 21738 ft 465 kts 91°
2026-05-04 14:20 50.03639 7.04649 22171 ft 468 kts 91°
2026-05-04 14:20 50.03715 7.09722 22591 ft 471 kts 91°
2026-05-04 14:20 50.03791 7.14828 22985 ft 474 kts 91°
2026-05-04 14:21 50.03938 7.25146 23677 ft 480 kts 91°
2026-05-04 14:21 50.04009 7.30333 23973 ft 482 kts 92°